Simultaneous Nadir Overpasses (SNOs) Predictions

Prediction of SNOs between FY3D and AQUA Satellite Orbit:

Table of predicted SNOs for the next 14.0 days since TLE Epoch: 11/4/2022
Index Date (FY3D) Time (FY3D) Lat,Lon (FY3D) SZA (FY3D ) Date (AQUA) Time (AQUA) Lat,Lon (AQUA) SZA (AQUA ) Distance(km) Time Diff (sec)
1 11/05/2022 19:02:16 77.10,-119.23 93.05 11/05/2022 19:02:19 77.10,-119.24 93.05 0.25 3
2 11/05/2022 19:51:29 -72.78, 61.01 91.44 11/05/2022 19:50:15 -72.65, 60.34 91.58 26.16 74
3 11/08/2022 09:38:51 77.10, 21.67 93.82 11/08/2022 09:38:57 77.11, 21.60 93.82 1.84 6
4 11/08/2022 10:29:20 -76.40,-168.23 86.96 11/08/2022 10:28:07 -76.40,-168.23 86.95 0.17 73
5 11/11/2022 00:15:30 77.31, 161.63 94.80 11/11/2022 00:15:37 77.30, 161.72 94.78 2.37 7
6 11/11/2022 01:05:53 -76.36, -27.17 86.27 11/11/2022 01:04:42 -76.36, -27.22 86.26 1.39 71
7 11/13/2022 14:52:04 77.26, -57.28 95.45 11/13/2022 14:52:12 77.26, -57.28 95.45 0.25 8
8 11/13/2022 15:42:35 -76.66, 112.54 85.23 11/13/2022 15:41:24 -76.65, 112.65 85.23 2.84 71
9 11/16/2022 05:28:36 77.13, 84.17 95.97 11/16/2022 05:28:44 77.14, 84.09 95.98 2.32 8



Historial Predications of SNOs between FY3D and AQUA
